CW5554 Weather Reports


Display with metric or nautical units.
time (UTC)temp
F
wind
direction
speed
MPH
gust
MPH
rain 1hr
in
rain 24hr
in
rain mn
in
humidity
%
barometer
mb
20260506021013 48 28 10.0 10.0 0.00 0.00 0.00 83 1012.0
20260506020013 48 15 8.0 9.0 0.00 0.00 0.00 83 1012.1
20260506015513 49 20 7.0 9.0 0.00 0.00 0.00 83 1012.2
20260506014513 49 26 3.0 13.0 0.00 0.00 0.00 83 1012.2
20260506014013 49 38 9.0 13.0 0.00 0.00 0.00 83 1012.1
20260506013514 49 44 7.0 10.0 0.00 0.00 0.00 83 1012.1
20260506012944 49 28 6.0 10.0 0.00 0.00 0.00 83 1012.2
20260506012513 49 30 1.0 11.0 0.00 0.00 0.00 82 1012.2
20260506012013 49 65 5.0 11.0 0.00 0.00 0.00 82 1012.2
20260506011513 49 13 4.0 10.0 0.00 0.00 0.00 82 1012.2
20260506011013 49 35 4.0 9.0 0.00 0.00 0.00 81 1012.1
20260506010513 49 56 3.0 9.0 0.00 0.00 0.00 81 1012.2
20260506010013 49 47 4.0 9.0 0.00 0.00 0.00 80 1012.2
20260506005513 49 32 3.0 9.0 0.00 0.00 0.00 80 1012.2
20260506005013 50 51 4.0 7.0 0.00 0.00 0.00 80 1012.2
20260506004443 50 41 1.0 6.0 0.00 0.00 0.00 79 1012.2
20260506004013 50 53 0.0 6.0 0.00 0.00 0.00 79 1012.2
20260506003513 50 31 2.0 6.0 0.00 0.00 0.00 79 1012.2
20260506003013 50 52 4.0 8.0 0.00 0.00 0.00 78 1012.2
20260506002513 50 67 4.0 9.0 0.00 0.00 0.00 78 1012.2
20260506002013 50 67 2.0 10.0 0.00 0.00 0.00 78 1012.2
20260506001515 50 47 3.0 10.0 0.00 0.00 0.00 77 1012.2
20260506000513 50 58 5.0 11.0 0.00 0.00 0.00 77 1012.2
20260506000013 51 51 4.0 11.0 0.00 0.00 0.00 77 1012.1
20260505235513 51 51 0.0 9.0 0.00 0.00 0.00 76 1012.1
20260505235013 51 21 3.0 9.0 0.00 0.00 0.00 76 1012.1
20260505234513 51 47 3.0 9.0 0.00 0.00 0.00 76 1012.2
20260505234013 51 54 1.0 9.0 0.00 0.00 0.00 76 1012.2
20260505232513 51 70 4.0 11.0 0.00 0.00 0.00 75 1012.2
20260505231513 52 5 5.0 13.0 0.00 0.00 0.00 75 1012.2
20260505230943 52 70 5.0 11.0 0.00 0.00 0.00 75 1012.2
20260505230513 52 65 8.0 10.0 0.00 0.00 0.00 75 1012.1
20260505230013 52 26 10.0 13.0 0.00 0.00 0.00 75 1012.0
20260505225013 52 30 8.0 11.0 0.00 0.00 0.00 75 1012.0
20260505224513 52 16 8.0 11.0 0.00 0.00 0.00 75 1012.0
20260505224013 53 49 11.0 11.0 0.00 0.00 0.00 75 1012.1
20260505223013 53 55 9.0 11.0 0.00 0.00 0.00 75 1012.1
20260505222513 53 63 4.0 9.0 0.00 0.00 0.00 75 1012.0
20260505222013 53 46 4.0 9.0 0.00 0.00 0.00 75 1012.0
20260505221513 53 24 5.0 12.0 0.00 0.00 0.00 75 1012.0
20260505221013 54 59 2.0 12.0 0.00 0.00 0.00 75 1012.0
20260505215513 54 39 3.0 11.0 0.00 0.00 0.00 74 1012.0
20260505215013 54 47 4.0 11.0 0.00 0.00 0.00 74 1011.9
20260505214513 54 17 2.0 11.0 0.00 0.00 0.00 73 1011.9
20260505214013 54 36 2.0 7.0 0.00 0.00 0.00 73 1012.0
20260505213513 54 46 2.0 6.0 0.00 0.00 0.00 72 1011.9
20260505212513 54 32 2.0 6.0 0.00 0.00 0.00 72 1011.8
20260505212013 54 40 4.0 6.0 0.00 0.00 0.00 72 1011.8
20260505211513 54 32 3.0 6.0 0.00 0.00 0.00 72 1011.8
20260505211013 54 34 4.0 7.0 0.00 0.00 0.00 71 1011.8
20260505210513 54 37 6.0 7.0 0.00 0.00 0.00 71 1011.8
20260505210013 55 38 5.0 8.0 0.00 0.00 0.00 71 1011.8
20260505205513 55 28 4.0 8.0 0.00 0.00 0.00 71 1011.8
20260505205013 55 44 4.0 9.0 0.00 0.00 0.00 70 1011.8
20260505204013 55 32 4.0 9.0 0.00 0.00 0.00 70 1011.7
20260505203513 55 32 2.0 8.0 0.00 0.00 0.00 70 1011.6
20260505203013 55 40 3.0 8.0 0.00 0.00 0.00 70 1011.6
20260505202513 55 24 2.0 6.0 0.00 0.00 0.00 70 1011.5
20260505202013 55 15 3.0 8.0 0.00 0.00 0.00 70 1011.5
20260505201513 55 36 2.0 8.0 0.00 0.00 0.00 70 1011.5
20260505201013 55 28 4.0 8.0 0.00 0.00 0.00 69 1011.5
20260505200013 55 17 5.0 8.0 0.00 0.00 0.00 69 1011.5
20260505195513 56 15 4.0 8.0 0.00 0.00 0.00 69 1011.5
20260505195013 56 27 3.0 8.0 0.00 0.00 0.00 69 1011.4
20260505194513 56 29 5.0 10.0 0.00 0.00 0.00 69 1011.4
20260505194013 56 13 4.0 10.0 0.00 0.00 0.00 69 1011.4
20260505193013 56 11 5.0 9.0 0.00 0.00 0.00 68 1011.2
20260505192013 56 38 3.0 9.0 0.00 0.00 0.00 68 1011.1
20260505191513 56 50 4.0 10.0 0.00 0.00 0.00 68 1011.1
20260505191013 57 39 7.0 10.0 0.00 0.00 0.00 68 1011.1
20260505190513 57 43 9.0 10.0 0.00 0.00 0.00 68 1011.1
20260505190013 57 5 6.0 11.0 0.00 0.00 0.00 67 1011.1
20260505185513 57 16 3.0 12.0 0.00 0.00 0.00 67 1011.0
20260505185013 57 34 5.0 12.0 0.00 0.00 0.00 67 1011.0
20260505184513 57 12 4.0 11.0 0.00 0.00 0.00 67 1011.0
20260505184013 57 5 8.0 10.0 0.00 0.00 0.00 68 1010.9
20260505183513 57 9 7.0 8.0 0.00 0.00 0.00 68 1010.9
20260505182013 58 15 3.0 11.0 0.00 0.00 0.00 67 1010.9
20260505181513 58 42 3.0 13.0 0.00 0.00 0.00 67 1010.8
20260505180513 58 19 3.0 9.0 0.00 0.00 0.00 67 1010.9
20260505175513 58 5 5.0 12.0 0.00 0.00 0.00 67 1010.7
20260505175013 58 16 8.0 10.0 0.00 0.00 0.00 67 1010.7
20260505174513 58 31 6.0 11.0 0.00 0.00 0.00 67 1010.8
20260505174012 58 14 3.0 11.0 0.00 0.00 0.00 66 1010.8
20260505173013 58 13 2.0 12.0 0.00 0.00 0.00 67 1010.8
20260505172013 58 15 11.0 16.0 0.00 0.00 0.00 67 1010.9
20260505171513 59 355 12.0 16.0 0.00 0.00 0.00 67 1011.0
20260505170513 59 40 7.0 11.0 0.00 0.00 0.00 66 1011.0
20260505170013 59 31 3.0 11.0 0.00 0.00 0.00 65 1011.0
20260505165512 59 303 9.0 11.0 0.00 0.00 0.00 66 1010.9
20260505164513 59 33 8.0 11.0 0.00 0.00 0.00 66 1010.9
20260505164013 59 19 4.0 12.0 0.00 0.00 0.00 65 1010.9
20260505163513 59 12 2.0 12.0 0.00 0.00 0.00 66 1010.8
20260505163013 59 50 3.0 12.0 0.00 0.00 0.00 66 1010.8
20260505162513 59 41 4.0 11.0 0.00 0.00 0.00 66 1010.8
20260505160513 59 38 3.0 11.0 0.00 0.00 0.00 64 1010.9
20260505152513 60 42 2.0 11.0 0.00 0.00 0.00 66 1011.0
20260505152013 60 51 2.0 8.0 0.00 0.00 0.00 65 1011.0
20260505151512 60 11 3.0 8.0 0.00 0.00 0.00 64 1011.0
20260505151012 60 63 6.0 10.0 0.00 0.00 0.00 66 1011.1
20260505150512 60 32 4.0 11.0 0.00 0.00 0.00 66 1011.1
20260505140513 60 5 9.0 12.0 0.00 0.00 0.00 66 1011.4
20260505125012 60 46 7.0 11.0 0.00 0.00 0.00 69 1011.7
20260505124012 59 35 4.0 11.0 0.00 0.00 0.00 69 1011.6
20260505123512 59 53 10.0 11.0 0.00 0.00 0.00 69 1011.7
20260505123012 59 22 4.0 10.0 0.00 0.00 0.00 71 1011.6
20260505121513 58 41 6.0 9.0 0.00 0.00 0.00 71 1011.7
20260505121013 58 55 3.0 9.0 0.00 0.00 0.00 69 1011.7
20260505120513 58 360 8.0 9.0 0.00 0.00 0.00 69 1011.7
20260505120012 59 82 2.0 14.0 0.00 0.00 0.00 69 1011.7
20260505115512 59 355 4.0 16.0 0.00 0.00 0.00 68 1011.7
20260505115012 59 66 9.0 16.0 0.00 0.00 0.00 68 1011.7
20260505114512 59 30 8.0 14.0 0.00 0.00 0.00 67 1011.7
20260505114012 59 36 0.0 13.0 0.00 0.00 0.00 69 1011.7
20260505113512 59 28 11.0 11.0 0.00 0.00 0.00 69 1011.8
20260505113012 59 360 3.0 12.0 0.00 0.00 0.00 69 1011.8
20260505112514 58 36 7.0 13.0 0.00 0.00 0.00 70 1011.9
20260505112012 58 11 4.0 13.0 0.00 0.00 0.00 70 1011.8
20260505111512 59 25 8.0 13.0 0.00 0.00 0.00 71 1011.9
20260505111012 58 5 6.0 17.0 0.00 0.00 0.00 73 1012.0
20260505110513 57 75 8.0 17.0 0.00 0.00 0.00 73 1012.0
20260505102012 56 48 6.0 11.0 0.00 0.00 0.00 76 1012.4
20260505101512 56 61 5.0 9.0 0.00 0.00 0.00 77 1012.3
20260505101013 56 294 4.0 10.0 0.00 0.00 0.00 77 1012.3
20260505100513 55 25 4.0 10.0 0.00 0.00 0.00 77 1012.4
20260505100012 55 350 5.0 10.0 0.00 0.00 0.00 78 1012.3
20260505095012 56 58 5.0 10.0 0.00 0.00 0.00 76 1012.4
20260505094512 56 10 2.0 11.0 0.00 0.00 0.00 76 1012.5
20260505094013 57 26 4.0 11.0 0.00 0.00 0.00 75 1012.5
20260505093513 56 32 2.0 11.0 0.00 0.00 0.00 77 1012.5
20260505093012 55 22 6.0 11.0 0.00 0.00 0.00 79 1012.4
20260505092512 55 5 8.0 11.0 0.00 0.00 0.00 78 1012.4
20260505092012 55 13 5.0 11.0 0.00 0.00 0.00 79 1012.4
20260505091512 54 38 4.0 13.0 0.00 0.00 0.00 79 1012.4
20260505091012 54 42 3.0 13.0 0.00 0.00 0.00 79 1012.5
20260505090512 54 43 4.0 11.0 0.00 0.00 0.00 80 1012.5
20260505090012 53 27 10.0 12.0 0.00 0.00 0.00 81 1012.5
20260505085012 53 336 8.0 11.0 0.00 0.00 0.00 82 1012.5
20260505084513 53 332 4.0 11.0 0.00 0.00 0.00 83 1012.5
20260505083012 52 25 8.0 9.0 0.00 0.00 0.00 85 1012.6
20260505082512 52 5 6.0 11.0 0.00 0.00 0.00 85 1012.7
20260505082012 52 9 3.0 12.0 0.00 0.00 0.00 84 1012.8
20260505081012 52 20 2.0 9.0 0.00 0.00 0.00 85 1012.7
20260505080512 52 19 7.0 9.0 0.00 0.00 0.00 86 1012.7
20260505080012 52 14 7.0 9.0 0.00 0.00 0.00 87 1012.6
20260505075512 52 30 4.0 11.0 0.00 0.00 0.00 87 1012.6
20260505075012 52 32 5.0 11.0 0.00 0.00 0.00 87 1012.6
20260505074512 52 18 8.0 10.0 0.00 0.00 0.00 88 1012.6
20260505073512 51 11 7.0 13.0 0.00 0.00 0.00 89 1012.7
20260505073012 51 22 6.0 11.0 0.00 0.00 0.00 89 1012.7
20260505072512 51 43 5.0 10.0 0.00 0.00 0.00 90 1012.7
20260505071512 51 54 2.0 11.0 0.00 0.00 0.00 91 1012.7
20260505071012 50 19 2.0 11.0 0.00 0.00 0.00 92 1012.6
20260505070512 50 34 8.0 13.0 0.00 0.00 0.00 92 1012.6
20260505065512 50 45 7.0 13.0 0.00 0.00 0.00 92 1012.7
20260505065014 49 13 7.0 13.0 0.00 0.00 0.00 93 1012.7
20260505064512 49 29 4.0 13.0 0.00 0.00 0.00 93 1012.6
20260505064012 49 10 8.0 11.0 0.00 0.00 0.00 93 1012.6
20260505063512 49 323 8.0 10.0 0.00 0.00 0.00 93 1012.7
20260505063012 48 5 6.0 11.0 0.00 0.00 0.00 93 1012.5
20260505062512 48 5 2.0 11.0 0.00 0.00 0.00 92 1012.5
20260505061512 47 15 4.0 9.0 0.00 0.00 0.00 92 1012.5
20260505060512 47 12 3.0 7.0 0.00 0.00 0.00 92 1012.5
20260505055512 47 38 1.0 6.0 0.00 0.00 0.00 91 1012.6
20260505054512 46 291 1.0 5.0 0.00 0.00 0.00 91 1012.6
20260505054012 46 276 2.0 5.0 0.00 0.00 0.00 91 1012.7
20260505053512 46 335 2.0 4.0 0.00 0.00 0.00 91 1012.7
20260505053012 46 321 2.0 3.0 0.00 0.00 0.00 91 1012.7
20260505052512 46 334 0.0 3.0 0.00 0.00 0.00 90 1012.7
20260505052012 46 321 0.0 3.0 0.00 0.00 0.00 90 1012.7
20260505051512 46 20 0.0 1.0 0.00 0.00 0.00 90 1012.6
20260505051012 46 22 0.0 0.0 0.00 0.00 0.00 90 1012.7
20260505050512 46 22 0.0 0.0 0.00 0.00 0.00 90 1012.7
20260505041512 47 18 4.0 8.0 0.00 0.00 0.00 90 1012.9
20260505041011 48 9 3.0 8.0 0.00 0.00 0.00 90 1013.0
20260505040512 48 10 1.0 5.0 0.00 0.00 0.00 89 1013.0
20260505040012 48 5 3.0 5.0 0.00 0.00 0.00 89 1012.9
20260505035512 48 5 3.0 5.0 0.00 0.00 0.00 90 1012.9
20260505035012 48 5 2.0 5.0 0.00 0.00 0.00 89 1013.0
20260505034512 48 28 1.0 3.0 0.00 0.00 0.00 89 1013.0
20260505034012 48 28 0.0 3.0 0.00 0.00 0.00 89 1013.0
20260505033511 48 29 0.0 4.0 0.00 0.00 0.00 89 1012.9
20260505033012 48 29 0.0 5.0 0.00 0.00 0.00 89 1012.9
20260505032512 48 29 0.0 5.0 0.00 0.00 0.00 89 1012.9
20260505032012 48 24 3.0 5.0 0.00 0.00 0.00 88 1012.9
20260505031512 48 22 3.0 5.0 0.00 0.00 0.00 88 1012.9
20260505031011 48 22 5.0 5.0 0.00 0.00 0.00 88 1012.9
20260505030512 48 24 3.0 5.0 0.00 0.00 0.00 88 1012.8
20260505030012 48 28 2.0 4.0 0.00 0.00 0.00 87 1012.9
20260505025513 48 26 0.0 4.0 0.00 0.00 0.00 87 1012.9
20260505025011 48 26 1.0 4.0 0.00 0.00 0.00 87 1012.8
20260505024512 49 26 2.0 4.0 0.00 0.00 0.00 87 1012.8
20260505023512 49 26 0.0 2.0 0.00 0.00 0.00 87 1012.8
20260505023012 49 26 1.0 1.0 0.00 0.00 0.00 87 1012.8
20260505022512 49 26 0.0 0.0 0.00 0.00 0.00 87 1012.9
20260505022011 50 26 0.0 0.0 0.00 0.00 0.00 87 1013.0
20260505021512 50 26 0.0 0.0 0.00 0.00 0.00 87 1013.0